{"data":{"norad_id":54766,"epoch":"2026-09-20T15:56:33.393696Z","epoch_age_seconds":75127,"freshness":"FRESH","line1":"1 54766U 22175J   26263.66427539 -.00000558  00000+0 -17004-4 0  9991","line2":"2 54766  53.1607 248.1783 0001257  76.0348 284.0784 15.08820307209354","mean_motion":15.08820307,"eccentricity":0.0001257,"inclination_deg":53.1607,"raan_deg":248.1783,"arg_perigee_deg":76.0348,"mean_anomaly_deg":284.0784,"bstar":-1.7004e-5,"rev_number":20935,"period_min":95.438800320972,"perigee_km":538.93399811019,"apogee_km":540.67316837281,"semimajor_km":6917.9405832415,"source":"CELESTRAK","updated_at":"2026-09-21T09:00:33.121318Z"}}